CAPE
965 1372 945 1084 1342 1265 1067 920 858 816 825 856 738 511 396 353 677 311 319 324 205 149 88 74 17 16 15 25 34 31 28 30 36 17 30 41 47 47 37 32 50 50 36
1116 1338 934 1361 1707 1704 1339 1094 960 1006 1010 934 625 493 521 674 682 641 502 265 156 103 28 2 0 12 17 7 2 2 8 12 8 10 23 41 37 38 33 20 27 26 26
1205 1264 994 1341 1698 1741 1520 1253 1090 1282 1116 957 825 875 836 792 658 649 326 165 74 54 13 3 8 18 9 2 0 0 0 0 0 8 10 27 18 12 10 5 7 7 12
1314 1310 1078 1278 1606 1766 1649 1507 1484 1377 1189 963 906 889 896 780 562 379 147 33 8 4 7 8 4 7 9 0 0 0 0 0 0 1 1 7 14 4 4 6 6 4 3
1345 1333 1181 885 1033 1706 1721 1652 1560 1374 1221 1028 923 898 781 566 365 147 38 1 0 3 4 7 11 10 6 0 0 0 0 0 0 0 0 0 3 5 2 1 3 1 4
1575 1241 1268 897 908 1251 1756 1716 1622 1399 1269 1056 963 838 811 587 378 119 37 10 3 2 3 7 18 12 0 0 0 0 0 0 0 0 0 0 2 4 4 0 5 1 1
1882 1344 1495 1018 448 191 654 1366 1626 1354 1215 1057 829 848 770 654 448 155 100 46 53 7 2 4 3 1 0 0 0 0 0 0 0 0 0 1 4 7 5 5 4 4 2
1441 1443 1376 629 225 81 309 920 1402 1206 1060 866 733 767 710 566 365 212 150 129 116 0 0 0 0 0 0 0 0 0 0 0 0 0 0 1 7 8 7 7 6 4 2
1012 1298 935 655 550 551 393 605 887 1069 953 782 793 757 614 474 295 261 184 173 152 0 0 0 0 0 0 0 0 0 0 0 0 0 0 1 10 8 8 6 3 4 3
826 698 980 1062 837 567 546 496 419 756 672 675 803 703 493 226 164 102 85 146 102 0 0 0 0 0 0 0 0 0 0 0 0 0 0 3 8 11 8 5 5 3 3
909 784 921 551 715 666 370 333 357 338 287 443 623 444 207 206 137 72 50 183 32 0 0 0 0 0 0 0 0 0 0 0 0 0 0 5 9 7 6 5 6 3 3
299 409 734 563 419 427 338 407 209 165 154 126 306 198 234 197 121 5 61 111 40 0 0 0 0 0 0 0 0 0 0 0 0 0 0 4 9 8 5 6 5 6 2
155 341 392 321 266 254 138 31 65 154 72 72 138 137 259 200 15 39 117 139 50 0 0 0 0 0 0 0 0 0 0 0 0 0 0 3 2 11 9 8 6 5 2
89 30 41 105 56 6 32 34 2 0 22 17 53 157 208 108 56 56 70 70 20 2 0 0 0 0 0 0 0 0 0 0 0 0 0 1 5 4 3 4 8 5 2
41 4 2 2 1 1 0 3 1 0 0 0 1 44 182 114 38 24 57 104 78 115 42 7 0 0 0 0 0 0 0 0 0 0 0 0 4 5 6 8 6 4 1
9 3 1 3 4 2 2 1 4 11 5 13 13 82 173 109 52 39 24 14 19 74 73 15 0 0 0 0 0 0 0 0 0 0 0 0 0 3 12 14 15 10 8
12 4 1 1 0 2 3 2 0 10 17 13 36 120 175 64 55 66 22 10 15 21 8 6 1 0 0 0 0 0 0 0 0 0 0 0 0 0 3 10 20 18 13
2 0 1 3 1 1 3 3 8 3 12 16 55 103 105 80 62 55 25 29 21 11 3 0 0 0 0 0 0 0 0 0 0 0 0 0 0 0 0 0 12 21 19
8 2 2 3 1 2 3 12 12 2 3 15 43 96 52 63 55 36 35 23 65 33 3 0 3 0 0 0 0 0 0 0 0 0 0 0 0 0 0 0 0 2 19
1 3 3 3 2 4 9 7 15 15 11 20 48 87 64 36 36 28 22 44 66 100 63 41 46 29 10 0 0 0 0 0 0 0 0 0 0 0 0 0 0 0 0
1 0 3 2 1 6 4 1 4 2 14 2 16 44 78 76 79 79 40 62 70 103 150 120 127 74 38 20 0 0 0 0 0 0 0 0 0 0 0 0 0 0 0
3 3 1 3 5 2 3 0 2 0 12 12 9 20 47 79 22 46 99 60 78 95 119 176 160 121 129 51 109 142 119 16 0 0 0 0 0 0 0 0 0 0 0
5 3 4 3 1 4 4 7 0 1 0 15 15 16 28 73 3 2 76 62 124 132 130 149 158 160 158 126 92 121 115 91 137 18 0 0 0 0 0 0 0 0 0
4 4 5 4 2 3 4 0 0 0 0 4 0 7 24 53 20 18 91 135 163 161 173 190 206 171 114 131 97 95 144 129 61 35 0 0 0 0 0 0 0 0 0
2 0 8 5 4 1 2 0 0 0 0 16 25 24 21 40 59 45 73 137 130 123 125 200 186 218 208 64 96 71 52 77 65 78 39 34 0 0 0 0 0 0 0
0 3 6 7 3 3 1 1 0 1 2 12 13 21 15 19 21 29 40 92 81 71 131 136 69 119 110 158 86 190 124 102 73 65 21 57 24 0 0 0 0 0 0
CIN
-45 -8 -109 -96 -88 -129 -172 -184 -148 -106 -76 -37 -11 -59 -136 -207 -10 -34 -16 -1 -2 -3 -12 -37 -93 -0 -86 -111 -86 -79 -76 -1 -66 -3 -2 -0 -1 -0 -1 -44 -36 -37 -45
-27 -10 -94 -32 -11 -17 -101 -163 -150 -75 -70 -25 -48 -86 -90 -83 -32 -1 -6 -3 -3 -14 -61 -0 -0 -12 -12 -0 -0 -0 -39 -2 -3 -4 -2 -0 -0 -0 -4 -4 -113 -1 -0
-35 -9 -49 -20 -4 -6 -17 -69 -120 -44 -59 -13 -15 -9 -14 -37 -52 -0 -19 -19 -12 -9 -53 -1 -0 -0 -0 -0 -0 -0 -0 -0 -0 -3 -1 -1 -1 -0 -0 -0 -0 -0 -0
-38 -18 -24 -6 -1 -1 -11 -43 -29 -36 -32 -18 -9 -8 -0 -8 -32 -21 -29 -68 -58 -1 -1 -1 -0 -0 -0 -0 -0 -0 -0 -0 -0 -7 -1 -1 -1 -0 -0 -0 -0 -1 -1
-35 -12 -18 -61 -16 -8 -18 -14 -15 -55 -34 -33 -32 -16 -0 -20 -34 -74 -79 -21 -0 -0 -0 -0 -0 -0 -0 -0 -0 -0 -0 -0 -0 -0 -0 -0 -1 -0 -1 -0 -0 -0 -1
-5 -1 -8 -58 -12 -2 -4 -7 -21 -28 -21 -31 -25 -21 -3 -15 -5 -57 -80 -43 -118 -0 -1 -0 -0 -0 -0 -0 -0 -0 -0 -0 -0 -0 -0 -0 -1 -0 -1 -0 -1 -0 -1
-1 -1 -0 -33 -116 -167 -3 -1 -4 -13 -8 -8 -35 -8 -2 -1 -0 -25 -10 -19 -27 -0 -0 -0 -0 -0 -0 -0 -0 -0 -0 -0 -0 -0 -0 -0 -1 -1 -0 -1 -1 -0 -0
-17 -3 -0 -107 -189 -220 -32 -4 -0 -7 -20 -28 -35 -25 -17 -8 -1 -12 -4 -1 -2 -0 -0 -0 -0 -0 -0 -0 -0 -0 -0 -0 -0 -0 -0 -1 -1 -1 -0 -1 -0 -0 -0
-24 -0 -11 -63 -80 -67 -11 -12 -15 -17 -13 -28 -16 -15 -17 -2 -4 -6 -17 -4 -4 -0 -0 -0 -0 -0 -0 -0 -0 -0 -0 -0 -0 -0 -0 -1 -0 -1 -0 -1 -1 -0 -1
-6 -19 -8 -8 -9 -3 -8 -9 -8 -22 -17 -8 -1 -1 -2 -34 -46 -55 -52 -9 -11 -0 -0 -0 -0 -0 -0 -0 -0 -0 -0 -0 -0 -0 -0 -1 -0 -1 -1 -0 -1 -1 -1
-2 -0 -0 -9 -15 -5 -6 -4 -15 -10 -9 -3 -1 -3 -37 -11 -70 -48 -45 -9 -24 -0 -0 -0 -0 -0 -0 -0 -0 -0 -0 -0 -0 -0 -0 -2 -1 -1 -0 -0 -1 -1 -1
-17 -15 -1 -1 -12 -10 -5 -1 -12 -13 -4 -29 -1 -9 -9 -2 -38 -64 -77 -25 -51 -0 -0 -0 -0 -0 -0 -0 -0 -0 -0 -0 -0 -0 -0 -2 -0 -1 -0 -1 -1 -1 -0
-0 -0 -0 -6 -22 -4 -1 -67 -33 -4 -0 -6 -9 -4 -3 -2 -30 -56 -20 -11 -34 -0 -0 -0 -0 -0 -0 -0 -0 -0 -0 -0 -0 -0 -0 -3 -2 -0 -0 -1 -1 -0 -0
-1 -46 -62 -28 -33 -16 -32 -34 -23 -0 -2 -39 -5 -13 -9 -11 -36 -18 -12 -1 -9 -0 -0 -0 -0 -0 -0 -0 -0 -0 -0 -0 -0 -0 -0 -3 -3 -1 -2 -0 -1 -0 -0
-21 -76 -82 -0 -0 -0 -0 -0 -0 -0 -0 -0 -6 -4 -6 -41 -54 -72 -18 -2 -1 -2 -8 -23 -7 -0 -0 -0 -0 -0 -0 -0 -0 -0 -1 -0 -3 -3 -1 -1 -0 -0 -1
-11 -80 -0 -2 -0 -0 -0 -0 -34 -15 -0 -6 -8 -5 -20 -69 -99 -107 -98 -55 -44 -1 -5 -32 -9 -0 -0 -0 -0 -0 -0 -0 -0 -0 -0 -0 -0 -3 -2 -1 -0 -0 -0
-17 -39 -0 -0 -0 -0 -3 -32 -0 -0 -0 -0 -4 -11 -15 -77 -128 -91 -120 -113 -81 -79 -75 -90 -19 -0 -0 -0 -0 -0 -0 -0 -0 -0 -0 -0 -0 -0 -4 -3 -1 -0 -0
-4 -0 -0 -0 -0 -0 -0 -0 -15 -3 -11 -12 -4 -24 -74 -92 -115 -128 -122 -81 -84 -122 -113 -0 -0 -0 -0 -0 -0 -0 -0 -0 -0 -0 -0 -0 -0 -0 -0 -0 -3 -2 -0
-1 -0 -0 -0 -0 -0 -0 -0 -2 -9 -9 -10 -22 -10 -73 -95 -97 -94 -116 -100 -97 -89 -99 -0 -124 -0 -0 -0 -0 -0 -0 -0 -0 -0 -0 -0 -0 -0 -0 -0 -0 -1 -2
-0 -0 -0 -0 -0 -0 -0 -1 -6 -12 -15 -13 -15 -3 -46 -51 -51 -59 -84 -124 -105 -48 -43 -79 -79 -82 -87 -0 -0 -0 -0 -0 -0 -0 -0 -0 -0 -0 -0 -0 -0 -0 -0
-0 -0 -0 -0 -0 -0 -0 -4 -10 -4 -2 -20 -15 -48 -39 -75 -74 -50 -93 -104 -83 -52 -34 -57 -65 -66 -83 -91 -0 -0 -0 -0 -0 -0 -0 -0 -0 -0 -0 -0 -0 -0 -0
-0 -0 -0 -0 -0 -0 -0 -0 -1 -0 -1 -18 -39 -65 -40 -54 -90 -74 -78 -73 -63 -46 -47 -38 -56 -61 -37 -91 -24 -1 -3 -16 -0 -0 -0 -0 -0 -0 -0 -0 -0 -0 -0
-0 -0 -0 -0 -0 -0 -0 -0 -1 -8 -1 -7 -24 -47 -71 -79 -26 -73 -62 -48 -50 -47 -46 -57 -51 -46 -25 -39 -45 -9 -1 -7 -2 -44 -0 -0 -0 -0 -0 -0 -0 -0 -0
-0 -0 -0 -0 -0 -0 -0 -0 -0 -0 -0 -3 -0 -41 -69 -62 -61 -38 -46 -33 -41 -61 -46 -51 -32 -33 -26 -9 -20 -32 -16 -10 -2 -2 -0 -0 -0 -0 -0 -0 -0 -0 -0
-1 -0 -0 -0 -0 -0 -0 -0 -0 -0 -0 -2 -1 -13 -46 -59 -40 -28 -36 -42 -58 -38 -29 -26 -39 -33 -29 -14 -6 -3 -28 -21 -15 -1 -1 -3 -0 -0 -0 -0 -0 -0 -0
-0 -1 -1 -1 -0 -0 -0 -0 -0 -1 -1 -2 -9 -8 -45 -35 -22 -33 -19 -35 -42 -37 -45 -39 -20 -11 -18 -9 -9 -2 -5 -4 -4 -2 -15 -2 -1 -0 -0 -0 -0 -0 -0
Wind_Speed
9 3 7 8 9 13 12 10 10 8 10 8 8 6 7 12 8 11 12 12 11 14 15 16 17 17 18 18 19 19 20 20 21 22 23 24 25 24 24 25 24 24 23
3 2 7 11 11 10 9 10 11 10 10 8 8 8 7 7 8 8 12 11 11 13 14 15 14 16 17 17 18 18 19 20 21 22 23 24 23 24 23 22 22 21 21
5 3 6 9 11 9 8 10 9 12 10 9 8 7 7 10 10 7 9 9 11 13 15 15 16 16 16 17 18 18 18 19 20 21 23 22 22 22 22 21 19 19 19
7 7 6 7 9 10 10 9 12 14 13 12 9 9 8 8 9 9 7 9 10 13 15 16 16 14 14 15 16 16 18 19 20 22 19 20 20 20 19 18 17 18 17
3 4 7 8 8 9 11 12 14 16 13 13 14 10 11 7 7 9 8 10 11 12 12 14 14 14 14 15 16 16 17 18 17 17 17 18 19 18 17 17 17 17 17
2 4 6 10 10 11 14 16 13 15 13 12 14 11 10 8 8 9 10 11 11 10 11 13 13 13 14 15 15 17 18 18 18 18 18 18 19 18 18 17 18 19 19
7 5 6 9 9 16 41 15 13 12 13 15 14 12 10 10 8 9 10 11 10 9 11 12 13 14 16 16 17 16 15 14 16 16 16 17 18 17 17 17 18 19 20
10 7 8 10 9 19 34 15 13 14 16 16 15 13 11 10 10 9 9 8 9 9 10 12 13 13 15 16 15 14 13 14 15 15 15 16 16 16 16 17 18 19 19
11 12 10 12 13 8 24 16 15 14 15 15 14 13 11 13 12 10 9 8 9 11 11 12 13 16 16 16 14 13 10 10 13 13 14 14 15 15 15 17 18 19 19
9 12 6 12 14 11 18 13 10 15 16 13 12 12 11 12 14 12 9 9 10 10 12 14 14 15 14 13 13 12 13 12 12 12 12 12 13 13 14 16 17 18 19
10 9 10 11 17 27 14 16 14 13 13 13 13 13 13 11 13 13 11 11 11 11 11 12 12 12 11 13 12 15 11 10 10 10 11 11 12 12 13 15 16 18 19
7 4 10 16 19 24 23 22 18 15 14 15 12 16 10 12 16 14 12 12 12 12 10 10 11 13 13 11 11 11 10 8 8 8 9 10 10 11 13 14 15 16 17
9 2 5 8 19 27 20 21 18 19 16 14 15 16 15 12 18 13 13 12 11 11 8 9 10 7 8 10 10 8 9 7 6 8 9 9 9 11 12 13 14 15 15
7 6 1 8 11 21 22 22 18 17 17 14 15 10 17 13 16 16 13 12 11 9 7 7 5 4 6 7 8 9 8 5 4 6 7 7 8 9 11 12 13 13 13
8 9 12 11 4 14 19 20 18 17 17 15 17 15 13 15 18 16 12 12 10 8 7 6 2 4 5 6 7 7 6 4 4 5 4 4 6 8 9 10 12 12 12
7 9 13 8 4 4 8 22 18 20 19 17 17 17 16 17 16 18 14 12 10 7 5 3 4 2 3 4 5 5 4 5 6 6 5 4 5 6 7 9 10 10 10
8 7 14 16 17 2 8 14 18 19 19 15 17 16 17 16 17 17 16 14 10 7 5 3 4 2 3 3 3 3 5 7 9 8 9 7 6 6 6 6 6 7 8
7 7 9 12 17 14 11 15 17 14 18 17 14 16 17 16 16 15 17 17 12 8 5 3 1 1 3 3 3 3 6 10 10 11 12 11 9 6 6 7 4 4 4
7 6 4 1 15 5 6 7 10 11 15 19 23 18 16 15 14 16 17 16 12 9 7 5 2 1 2 3 3 4 10 12 13 14 12 12 12 13 11 5 7 6 4
7 3 5 2 6 4 6 9 9 13 18 21 23 20 15 15 15 16 14 12 10 9 6 5 3 6 4 2 3 6 10 14 15 14 12 12 13 14 12 12 9 8 6
13 4 4 5 6 11 6 11 11 10 12 19 23 20 17 17 16 14 12 11 11 8 7 5 5 4 5 5 6 10 12 17 18 15 16 15 13 9 12 13 12 12 9
17 16 9 7 11 12 7 8 8 10 13 17 19 14 16 16 16 14 12 11 11 9 8 7 5 6 6 4 9 9 14 16 17 17 16 16 13 13 14 14 14 15 18
18 18 11 8 10 9 7 10 10 11 11 15 15 21 15 14 16 15 15 14 13 12 10 10 7 6 5 9 4 21 18 22 17 15 11 13 14 15 17 17 16 16 16
18 19 21 14 6 7 9 9 12 12 17 13 15 17 17 16 18 16 15 15 15 15 13 13 12 13 27 13 10 8 28 27 22 26 14 14 14 15 16 17 18 18 15
16 18 19 19 19 19 19 11 12 14 16 18 12 15 20 18 17 19 18 17 16 16 14 14 13 19 27 22 15 19 16 19 21 24 26 19 19 18 16 16 19 18 16
16 17 19 19 18 19 22 27 22 16 14 16 14 14 18 20 20 20 20 18 16 17 21 33 36 19 18 25 19 17 17 20 19 20 24 24 22 20 17 15 19 17 12
Wind_Direction
308 242 218 212 185 170 165 174 169 169 155 145 140 147 120 113 106 98 96 92 87 83 81 78 76 73 70 67 66 66 66 67 66 66 64 65 63 60 59 60 58 55 51
343 237 223 240 231 211 177 156 151 171 162 163 155 159 145 132 122 111 98 95 91 86 83 77 74 76 74 70 69 67 65 66 68 68 67 62 60 58 54 52 52 49 46
101 156 208 239 228 212 198 176 162 162 154 156 152 154 156 130 117 126 107 102 94 88 86 83 83 80 77 76 72 67 66 67 66 68 72 62 58 57 54 50 47 45 42
119 143 186 217 220 219 198 194 160 150 145 141 146 136 144 151 135 119 116 104 99 93 92 90 88 79 76 76 72 69 70 68 72 77 58 61 59 53 51 47 45 45 40
112 163 183 202 197 203 210 182 167 144 153 144 139 148 142 165 138 125 121 111 101 98 96 93 86 82 78 77 73 71 74 70 61 59 56 56 58 54 50 48 46 41 39
298 215 204 209 227 229 209 176 168 146 154 150 140 157 153 146 147 132 126 115 108 104 98 91 85 83 81 79 77 80 79 73 67 62 59 55 57 57 53 49 52 52 49
303 278 238 198 221 268 217 193 185 168 152 146 145 147 152 144 171 148 133 122 114 109 98 95 92 89 86 81 81 78 71 61 64 60 55 58 61 60 57 52 53 54 52
295 273 259 239 216 170 185 186 171 158 152 152 149 150 156 169 168 162 149 140 122 112 105 99 94 90 87 83 79 76 66 65 61 58 58 59 62 61 56 55 56 54 52
303 282 260 246 253 208 174 189 201 174 164 163 156 153 169 185 183 175 161 150 134 120 108 101 96 92 88 86 83 76 55 46 57 58 60 59 62 59 58 59 57 55 52
303 287 231 245 238 215 176 232 183 165 172 175 172 157 168 166 184 186 165 160 139 126 114 104 97 93 87 83 81 71 68 58 57 55 46 56 61 58 58 56 56 56 55
310 280 252 227 243 246 229 235 218 194 188 182 170 162 156 170 182 187 181 162 142 129 117 104 96 90 83 82 80 86 67 47 47 43 52 61 61 58 55 52 55 57 59
304 209 262 246 242 243 240 240 230 221 200 180 176 150 172 178 197 196 180 159 145 131 122 107 100 95 87 80 82 72 52 43 34 40 52 63 58 56 57 55 57 57 56
330 111 156 193 248 239 231 230 227 229 208 182 166 159 204 188 197 190 184 171 152 137 127 112 107 83 73 77 83 57 65 43 27 43 63 62 56 54 56 58 53 53 52
343 11 52 212 224 252 236 228 217 214 204 211 182 162 204 192 194 196 183 173 165 163 143 126 108 56 64 61 70 75 65 27 10 37 59 58 55 51 49 53 54 53 48
8 26 1 324 243 236 225 219 195 213 215 204 211 202 177 178 197 198 187 189 183 176 158 135 106 85 58 61 65 70 56 338 350 5 12 31 47 49 52 55 56 57 55
22 63 88 42 316 187 199 216 220 220 208 211 198 184 189 168 183 202 199 197 197 188 168 146 116 80 26 35 44 50 9 313 313 313 340 352 8 32 54 65 65 57 58
83 63 93 88 97 233 194 201 209 213 211 179 181 188 195 183 187 204 206 212 203 197 189 154 114 55 11 11 30 39 312 299 290 298 302 322 332 349 41 43 54 61 63
58 97 101 98 110 105 220 215 216 204 213 204 191 203 195 182 188 197 214 217 219 212 197 204 154 34 38 24 27 352 305 286 291 289 294 302 320 345 343 349 28 63 47
61 115 135 90 117 98 200 215 214 174 200 208 215 213 183 188 179 209 213 220 217 218 232 237 251 340 356 7 7 325 293 285 282 286 295 300 306 311 324 342 332 343 352
48 120 165 143 125 142 210 219 210 210 211 209 217 219 193 189 185 209 208 208 210 226 235 240 252 289 313 344 1 318 299 288 286 288 297 299 302 306 317 323 331 328 330
104 125 139 132 146 136 206 220 215 187 206 208 223 222 212 212 200 176 200 205 213 226 237 248 263 283 305 322 326 311 302 286 284 291 288 294 303 310 310 315 322 326 328
118 134 138 144 145 156 159 185 170 189 224 166 218 214 221 216 195 198 208 206 214 233 242 250 257 277 289 298 307 311 303 298 292 289 293 297 299 303 305 308 311 315 319
131 133 133 151 156 172 173 229 231 234 223 231 209 229 213 205 208 198 221 226 234 244 250 256 259 261 258 288 277 276 298 293 303 304 297 298 299 299 302 306 307 310 311
136 141 147 141 155 179 185 207 192 191 188 215 195 196 209 218 220 206 218 231 242 250 257 265 265 270 257 286 295 275 280 288 299 295 310 305 299 298 299 301 305 301 302
129 137 145 147 152 154 159 206 210 214 219 244 219 202 220 225 217 223 230 240 244 250 255 263 270 269 266 280 288 297 297 297 299 297 298 304 306 305 301 301 300 302 301
136 136 141 142 145 152 158 164 172 181 221 233 230 214 212 221 226 237 235 233 237 251 262 256 253 262 277 280 291 295 298 301 300 300 299 298 301 309 308 302 300 299 291